Flag for Argentina Weather past 2 weeks in Jujuy, Jujuy, Argentina

Now
64 °F

Rain. More clouds than sun.


Feels Like: 64 °F
Forecast: 60 / 74 °F
Wind: 5 mph from Northwest

Location: Jujuy Aerodrome

Current Time: Mar 31, 2015 at 7:25:19 AM

Latest Report: Mar 31, 2015 at 7:00 AM


Visibility: 3 mi

Pressure: 30.04 "Hg

Humidity: 94%

Dew point: 63 °F

Location of JujuyLocation

Historic Weather in Jujuy — Graph

°F

Jujuy temperature yesterday

Maximum temperature yesterday: 81 °F (at 5:00 PM)
Minimum temperature yesterday: 59 °F (at 1:00 AM)
Average temperature yesterday: 69 °F

Past Weeks' High & Low Weather Summary

 TemperatureHumidityPressure
High88 °F (Mar 20, 5:00 PM)100% (Mar 16, 3:00 AM)30.24 "Hg (Mar 16, 3:00 AM)
Low57 °F (Mar 27, 1:00 AM)46% (Mar 20, 5:00 PM)29.89 "Hg (Mar 30, 3:00 PM)
Average67 °F84%30.08 "Hg
* Reported Mar 16 1:00 AM — Mar 31 1:00 AM, Jujuy, Weather by CustomWeather, © 2015

Note: Actual official high and low records may vary slightly from our data, if they occured in-between our weather recording intervals... More about our weather records

Advertising

Jujuy weather history for previous 24 hours

 ConditionsComfort  
Time TempWeatherWind HumidityBarometerVisibility
1:00 AM
Tue, Mar 31
64 °FClear.3 mph88%30.01 "Hg10 mi
12:00 AM63 °FClear.3 mph94%30.04 "Hg10 mi
11:00 PM
Mon, Mar 30
63 °FClear.5 mph94%30.04 "Hg10 mi
10:00 PM66 °FClear.3 mph83%30.01 "Hg10 mi
9:00 PM68 °FClear.7 mph83%29.98 "Hg10 mi
8:00 PM72 °FPassing clouds.3 mph73%29.95 "HgN/A
7:00 PM77 °FPassing clouds.9 mph61%29.92 "HgN/A
6:00 PM79 °FPassing clouds.7 mph61%29.89 "HgN/A
5:00 PM81 °FPassing clouds.7 mph58%29.89 "HgN/A
4:00 PM79 °FPassing clouds.6 mph65%29.89 "HgN/A
3:00 PM79 °FPassing clouds.No wind65%29.89 "HgN/A
2:00 PM77 °FScattered clouds.No wind61%29.92 "HgN/A
1:00 PM75 °FScattered clouds.3 mph61%29.95 "HgN/A
12:00 PM75 °FScattered clouds.6 mph61%29.98 "HgN/A
11:00 AM73 °FScattered clouds.3 mph65%29.98 "Hg6 mi
10:00 AM68 °FScattered clouds.3 mph78%29.98 "Hg6 mi
9:00 AM64 °FPartly sunny.5 mph88%29.98 "Hg6 mi
8:00 AM63 °FPartly sunny.6 mph94%29.95 "Hg6 mi
7:00 AM63 °FMore clouds than sun.6 mph94%29.95 "HgN/A
Weather by CustomWeather, © 2015

See weather overviewHow to use our weather pages